This is the latest recevied weather packets stored in our database for station/object F1DKL-13. If no packets are shown the sender has not sent any weather packets the latest 10 day(s).
| Time | Temp. | Humidity | Pressure | Rain* | Wind** | Luminosity | Snow |
|---|---|---|---|---|---|---|---|
| 1778084705 | 13.89° C | 44% | 1017.2 hPa | 0 mm | - | - | - |
| 1778084405 | 13.89° C | 43% | 1017.2 hPa | 0 mm | - | - | - |
| 1778084105 | 13.89° C | 44% | 1017.2 hPa | 0 mm | - | - | - |
| 1778083205 | 13.89° C | 44% | 1017.2 hPa | 0 mm | - | - | - |
| 1778082605 | 13.89° C | 44% | 1017.2 hPa | 0 mm | - | - | - |
| 1778082305 | 14.44° C | 46% | 1017.2 hPa | 0 mm | - | - | - |
| 1778082005 | 14.44° C | 46% | 1018.3 hPa | 0 mm | - | - | - |
| 1778081705 | 14.44° C | 47% | 1018.3 hPa | 0 mm | - | - | - |
| 1778081405 | 13.89° C | 48% | 1018.3 hPa | 0 mm | - | - | - |
| 1778081105 | 13.33° C | 47% | 1018.3 hPa | 0 mm | - | - | - |
| 1778080805 | 13.33° C | 48% | 1018.3 hPa | 0 mm | - | - | - |
| 1778080513 | 13.33° C | 48% | 1018.3 hPa | 0 mm | - | - | - |
| 1778080205 | 13.33° C | 47% | 1017.2 hPa | 0 mm | - | - | - |
| 1778079905 | 12.78° C | 47% | 1017.2 hPa | 0 mm | - | - | - |
| 1778079605 | 13.33° C | 48% | 1017.2 hPa | 0 mm | - | - | - |
| 1778079305 | 13.33° C | 49% | 1018.3 hPa | 0 mm | - | - | - |
| 1778079005 | 12.78° C | 49% | 1018.3 hPa | 0 mm | - | - | - |
| 1778078708 | 12.78° C | 49% | 1018.3 hPa | 0 mm | - | - | - |
| 1778078405 | 12.78° C | 48% | 1018.3 hPa | 0 mm | - | - | - |
| 1778078105 | 12.78° C | 48% | 1018.3 hPa | 0 mm | - | - | - |
| 1778077805 | 12.78° C | 47% | 1018.3 hPa | 0 mm | - | - | - |
| 1778077505 | 12.78° C | 45% | 1018.3 hPa | 0 mm | - | - | - |
| 1778077205 | 13.33° C | 41% | 1018.3 hPa | 0 mm | - | - | - |
| 1778076905 | 13.89° C | 41% | 1018.3 hPa | 0 mm | - | - | - |
| 1778076605 | 14.44° C | 39% | 1016.1 hPa | 0 mm | - | - | - |
* Rain latest hour (hover to see other rain measurements)
** Current wind speed in m/s (hover to see current wind gust speed)